Location: Sungai Kamana Besar
(2.6333°N, 113.4333°E)
Time: 05:03:36
(UTC+00:00)

Cosmos 1814 Rocket - Pass Details

Date: 29 May 2022
Orbit: 745 x 786 km, 74.1° (Epoch: 24 June)

Event Time Altitude Azimuth Distance (km) Brightness Sun altitude
Rises 12:11:05 0° 352° (N) 3,179 7.6 -23.7°
Reaches altitude 10° 12:13:26 10° 355° (N) 2,261 6.8 -24.3°
Enters shadow 12:18:17 67° 57° (ENE) 814 3.9 -25.3°
